Location: Ravensburg
(47.7866°N, 9.6124°E)
Time: 07:17:19
(UTC+01:00)

RS-15 - Visible Passes

Search period start: 11 March 2026 00:00
Search period end: 21 March 2026 00:00
Orbit: 1894 x 2151 km, 64.8° (Epoch: 10 March)

Date Brightness Start Highest point End Pass type
(mag) Time Alt. Az. Time Alt. Az. Time Alt. Az.
11 Mar 9.2 01:59:31 10° WNW 02:09:21 33° N 02:19:35 10° ENE visible
11 Mar 8.7 04:13:48 10° NW 04:24:56 54° NE 04:36:32 10° ESE visible
11 Mar 9.0 18:48:59 10° SE 18:54:16 15° E 18:59:35 10° ENE visible
11 Mar 7.8 20:53:26 10° SSW 21:04:04 64° ESE 21:15:01 10° NE visible
11 Mar 8.5 23:06:17 10° WSW 23:16:52 52° NW 23:27:54 10° NE visible
12 Mar 9.2 01:22:43 10° WNW 01:32:30 33° N 01:42:40 10° ENE visible
12 Mar 8.8 03:37:35 10° NW 03:48:26 47° NNE 03:59:43 10° ESE visible
12 Mar 8.1 05:50:23 10° NW 06:01:51 77° WSW 06:13:51 10° SSE visible
12 Mar 8.0 20:18:00 10° S 20:28:16 51° ESE 20:38:46 10° NE visible
12 Mar 8.2 22:29:42 10° WSW 22:40:28 61° NW 22:51:40 10° NE visible
13 Mar 9.1 00:45:50 10° WNW 00:55:40 34° N 01:05:52 10° NE visible
13 Mar 9.0 03:01:15 10° NW 03:11:49 41° NNE 03:22:48 10° E visible
13 Mar 8.1 05:14:16 10° NW 05:25:49 89° NE 05:37:53 10° SE visible
13 Mar 8.2 19:42:54 10° S 19:52:35 39° ESE 20:02:27 10° NE visible
13 Mar 8.0 21:53:18 10° SW 22:04:11 72° NW 22:15:30 10° NE visible
14 Mar 9.0 00:08:54 10° W 00:18:51 36° NNW 00:29:12 10° NE visible
14 Mar 9.1 02:24:50 10° NW 02:35:06 38° NNE 02:45:47 10° E visible
14 Mar 8.2 04:38:09 10° NW 04:49:39 76° NE 05:01:41 10° SE visible
14 Mar 8.5 19:08:09 10° SSE 19:17:00 30° ESE 19:25:58 10° NE visible
14 Mar 7.9 21:17:06 10° SW 21:28:02 85° NW 21:39:21 10° NE visible
14 Mar 8.9 23:32:00 10° W 23:42:07 40° NNW 23:52:40 10° NE visible
15 Mar 9.2 01:48:18 10° NW 01:58:20 35° NNE 02:08:45 10° ENE visible
15 Mar 8.4 04:02:01 10° NW 04:13:24 64° NE 04:25:16 10° SE visible
15 Mar 7.8 20:41:07 10° SSW 20:51:59 80° ESE 21:03:12 10° NE visible
15 Mar 8.8 22:55:08 10° W 23:05:29 44° NNW 23:16:16 10° NE visible
16 Mar 9.2 01:11:37 10° WNW 01:21:29 34° N 01:31:45 10° ENE visible
16 Mar 8.6 03:25:51 10° NW 03:37:01 55° NE 03:48:39 10° ESE visible
16 Mar 8.1 05:38:33 10° NW 05:49:48 61° WSW 06:01:31 10° SSE visible
16 Mar 7.8 20:05:23 10° SSW 20:16:03 66° ESE 20:27:03 10° NE visible
16 Mar 8.6 22:18:22 10° WSW 22:28:57 51° NW 22:39:58 10° NE visible
17 Mar 9.2 00:34:51 10° WNW 00:44:38 33° N 00:54:49 10° ENE visible
17 Mar 8.8 02:49:37 10° NW 03:00:31 48° NNE 03:11:53 10° ESE visible
17 Mar 8.0 05:02:25 10° NW 05:13:52 75° WSW 05:25:51 10° SSE visible
17 Mar 8.0 19:29:55 10° S 19:40:14 52° ESE 19:50:50 10° NE visible
17 Mar 8.4 21:41:47 10° WSW 21:52:32 59° NW 22:03:43 10° NE visible
17 Mar 9.2 23:57:58 10° WNW 00:07:48 34° N 00:18:00 10° NE visible
18 Mar 9.0 02:13:19 10° NW 02:23:55 42° NNE 02:34:58 10° E visible
18 Mar 8.1 04:26:17 10° NW 04:37:50 89° SW 04:49:55 10° SE visible
18 Mar 8.2 18:54:45 10° S 19:04:32 41° ESE 19:14:31 10° NE visible
18 Mar 8.1 21:05:21 10° SW 21:16:14 70° NW 21:27:33 10° NE visible
18 Mar 9.1 23:21:03 10° W 23:30:59 36° NNW 23:41:19 10° NE visible
19 Mar 9.1 01:36:54 10° NW 01:47:13 38° NNE 01:57:57 10° E visible
19 Mar 8.2 03:50:10 10° NW 04:01:42 78° NE 04:13:45 10° SE visible
19 Mar 8.0 20:29:06 10° SW 20:40:03 83° NW 20:51:23 10° NE visible
19 Mar 9.0 22:44:07 10° W 22:54:15 39° NNW 23:04:46 10° NE visible
20 Mar 9.2 01:00:23 10° NW 01:10:27 35° NNE 01:20:56 10° ENE visible
20 Mar 8.3 03:14:02 10° NW 03:25:27 66° NE 03:37:22 10° SE visible
20 Mar 8.3 05:26:50 10° NW 05:37:35 48° WSW 05:48:48 10° S visible
20 Mar 7.9 19:53:06 10° SSW 20:03:59 82° SE 20:15:15 10° NE visible
20 Mar 8.9 22:07:15 10° W 22:17:35 44° NNW 22:28:20 10° NE visible
